Вернуться в каталог

SL-23 R/B

АктивенHEO
NORAD 37835·ROCKET BODY·🇷🇺 Russia

Запущен Oct 5, 2011 с Baikonur Cosmodrome

Loading…

Ближайшие Пролёты (ближайшие 24 часа)

TLE

СвежийSource: Space-Track

Эпоха: Sep 13, 2026, 07:11 UTC

1 37835U 11056B   26256.29946707  .00000206  00000-0  00000-0 0  9992
2 37835  19.5302 310.6790 5667139 288.3816  20.0106  1.96795628107401

Отслеживайте SL-23 R/B в реальном времени с AllMySat

Download on the App Store